ENY4043 KBOS-KDCA

Flight info

Callsign ENY4043
Flight time 1h 11m
Altitude 34000
Route SSOXS7 SSOXS Q167 ZIZZI KNUKK ATR LAFLN DEALE3
Aircraft E75L/M-VGDW/C

Departure

Time 2026-05-04 19:30
Airport Boston Logan International Airport (KBOS)

Arrival

Time 2026-05-04 20:41
Airport Ronald Reagan Washington National Airport (KDCA)
Time Latitude Longitude Altitude Speed Heading
2026-05-04 19:13 42.36291 -71.01661 32 ft 0 kts 348°
2026-05-04 19:19 42.36273 -71.01658 26 ft 4 kts
2026-05-04 19:19 42.36252 -71.01671 27 ft 4 kts 72°
2026-05-04 19:19 42.36252 -71.01687 25 ft 1 kts 95°
2026-05-04 19:20 42.36252 -71.01688 25 ft 0 kts 95°
2026-05-04 19:23 42.36251 -71.01678 27 ft 4 kts 96°
2026-05-04 19:23 42.36242 -71.01616 25 ft 8 kts 109°
2026-05-04 19:23 42.36234 -71.01588 23 ft 3 kts 111°
2026-05-04 19:23 42.36230 -71.01574 23 ft 0 kts 111°
2026-05-04 19:24 42.36229 -71.01570 23 ft 3 kts 111°
2026-05-04 19:24 42.36224 -71.01552 23 ft 5 kts 109°
2026-05-04 19:24 42.36238 -71.01488 25 ft 9 kts 40°
2026-05-04 19:24 42.36307 -71.01447 24 ft 12 kts 17°
2026-05-04 19:25 42.36395 -71.01403 23 ft 15 kts 18°
2026-05-04 19:25 42.36500 -71.01348 23 ft 18 kts 25°
2026-05-04 19:25 42.36607 -71.01283 25 ft 16 kts 19°
2026-05-04 19:25 42.36707 -71.01248 23 ft 11 kts 13°
2026-05-04 19:26 42.36787 -71.01271 23 ft 14 kts 324°
2026-05-04 19:26 42.36870 -71.01242 23 ft 15 kts 40°
2026-05-04 19:26 42.36956 -71.01144 23 ft 18 kts 40°
2026-05-04 19:26 42.37069 -71.01058 23 ft 20 kts 26°
2026-05-04 19:27 42.37202 -71.00969 23 ft 23 kts 26°
2026-05-04 19:27 42.37355 -71.00882 23 ft 25 kts 19°
2026-05-04 19:27 42.37505 -71.00810 23 ft 20 kts 19°
2026-05-04 19:27 42.37632 -71.00747 23 ft 16 kts 19°
2026-05-04 19:28 42.37740 -71.00695 23 ft 16 kts 21°
2026-05-04 19:28 42.37766 -71.00597 23 ft 13 kts 109°
2026-05-04 19:28 42.37703 -71.00520 23 ft 14 kts 190°
2026-05-04 19:28 42.37666 -71.00535 23 ft 0 kts 199°
2026-05-04 19:29 42.37560 -71.00590 24 ft 51 kts 200°
2026-05-04 19:29 42.36970 -71.00876 23 ft 128 kts 200°
2026-05-04 19:30 42.35990 -71.01313 619 ft 155 kts 199°
2026-05-04 19:30 42.34880 -71.01750 1553 ft 175 kts 198°
2026-05-04 19:30 42.33625 -71.01963 2687 ft 198 kts 182°
2026-05-04 19:30 42.32250 -71.01213 3679 ft 226 kts 151°
2026-05-04 19:31 42.31197 -70.99487 4534 ft 251 kts 123°
2026-05-04 19:31 42.30490 -70.97262 5861 ft 265 kts 110°
2026-05-04 19:31 42.30136 -70.94821 7189 ft 272 kts 95°
2026-05-04 19:31 42.30269 -70.92136 7924 ft 297 kts 77°
2026-05-04 19:32 42.30844 -70.89406 8618 ft 306 kts 68°
2026-05-04 19:32 42.31548 -70.86679 9475 ft 310 kts 67°
2026-05-04 19:32 42.32270 -70.83861 9886 ft 331 kts 67°
2026-05-04 19:32 42.32992 -70.80818 10251 ft 351 kts 76°
2026-05-04 19:33 42.32929 -70.77445 10522 ft 374 kts 107°
2026-05-04 19:33 42.31721 -70.74294 11077 ft 380 kts 125°
2026-05-04 19:33 42.30258 -70.71362 11853 ft 382 kts 127°
2026-05-04 19:33 42.28540 -70.68628 12672 ft 382 kts 139°
2026-05-04 19:34 42.26317 -70.66760 13527 ft 377 kts 162°
2026-05-04 19:34 42.23816 -70.65681 14328 ft 379 kts 168°
2026-05-04 19:34 42.21263 -70.64699 15119 ft 384 kts 168°
2026-05-04 19:34 42.18684 -70.63668 15919 ft 389 kts 167°
2026-05-04 19:35 42.16075 -70.62587 16650 ft 395 kts 166°
2026-05-04 19:35 42.13386 -70.61935 17344 ft 391 kts 186°
2026-05-04 19:35 42.10787 -70.62770 18149 ft 384 kts 204°
2026-05-04 19:35 42.08252 -70.63974 18787 ft 390 kts 203°
2026-05-04 19:36 42.05651 -70.65111 19383 ft 396 kts 202°
2026-05-04 19:36 42.03019 -70.66255 19976 ft 400 kts 202°
2026-05-04 19:36 42.00357 -70.67425 20557 ft 404 kts 203°
2026-05-04 19:36 41.97722 -70.68593 21139 ft 408 kts 203°
2026-05-04 19:37 41.95019 -70.69800 21676 ft 412 kts 203°
2026-05-04 19:37 41.92280 -70.71031 22224 ft 416 kts 203°
2026-05-04 19:37 41.89526 -70.72276 22771 ft 420 kts 204°
2026-05-04 19:37 41.86739 -70.73541 23336 ft 425 kts 204°
2026-05-04 19:38 41.84006 -70.75033 23822 ft 421 kts 215°
2026-05-04 19:38 41.81827 -70.77539 24354 ft 411 kts 231°
2026-05-04 19:38 41.79851 -70.80337 24861 ft 415 kts 231°
2026-05-04 19:38 41.77843 -70.83122 25364 ft 418 kts 231°
2026-05-04 19:39 41.75835 -70.85886 25835 ft 420 kts 231°
2026-05-04 19:39 41.73788 -70.88699 26277 ft 423 kts 231°
2026-05-04 19:39 41.71731 -70.91525 26708 ft 425 kts 231°
2026-05-04 19:39 41.69661 -70.94366 27110 ft 428 kts 231°
2026-05-04 19:40 41.67579 -70.97223 27512 ft 430 kts 231°
2026-05-04 19:40 41.65483 -71.00097 27896 ft 433 kts 231°
2026-05-04 19:40 41.63377 -71.02983 28274 ft 435 kts 231°
2026-05-04 19:40 41.61259 -71.05883 28658 ft 437 kts 231°
2026-05-04 19:41 41.59135 -71.08789 29003 ft 439 kts 231°
2026-05-04 19:41 41.56996 -71.11714 29398 ft 440 kts 231°
2026-05-04 19:41 41.54886 -71.14590 29926 ft 438 kts 231°
2026-05-04 19:41 41.52759 -71.17486 30378 ft 437 kts 231°
2026-05-04 19:42 41.50641 -71.20374 30791 ft 435 kts 231°
2026-05-04 19:42 41.48522 -71.23261 31200 ft 434 kts 231°
2026-05-04 19:42 41.46410 -71.26133 31598 ft 433 kts 230°
2026-05-04 19:42 41.44304 -71.28994 31995 ft 432 kts 230°
2026-05-04 19:43 41.42201 -71.31850 32379 ft 431 kts 230°
2026-05-04 19:43 41.40107 -71.34691 32747 ft 430 kts 230°
2026-05-04 19:43 41.38038 -71.37494 33110 ft 429 kts 230°
2026-05-04 19:43 41.35950 -71.40321 33473 ft 428 kts 230°
2026-05-04 19:44 41.33861 -71.43147 33802 ft 427 kts 230°
2026-05-04 19:44 41.31782 -71.45957 34146 ft 426 kts 230°
2026-05-04 19:44 41.29696 -71.48777 34177 ft 428 kts 230°
2026-05-04 19:45 41.25531 -71.54429 33907 ft 427 kts 230°
2026-05-04 19:45 41.21358 -71.60080 33979 ft 431 kts 230°
2026-05-04 19:46 41.17185 -71.65711 33961 ft 430 kts 230°
2026-05-04 19:46 41.12987 -71.71365 33952 ft 430 kts 230°
2026-05-04 19:47 41.08787 -71.77011 33966 ft 430 kts 230°
2026-05-04 19:47 41.04585 -71.82650 33966 ft 430 kts 230°
2026-05-04 19:48 41.00382 -71.88282 33962 ft 430 kts 230°
2026-05-04 19:48 40.96167 -71.93918 33957 ft 432 kts 230°
2026-05-04 19:49 40.91932 -71.99571 33967 ft 433 kts 230°
2026-05-04 19:49 40.87714 -72.05185 33964 ft 433 kts 230°
2026-05-04 19:50 40.83470 -72.10833 33973 ft 433 kts 230°
2026-05-04 19:50 40.79216 -72.16477 33956 ft 433 kts 229°
2026-05-04 19:51 40.74972 -72.22090 33980 ft 432 kts 230°
2026-05-04 19:51 40.70728 -72.27706 33985 ft 434 kts 230°
2026-05-04 19:52 40.66480 -72.33317 33981 ft 435 kts 230°
2026-05-04 19:52 40.62202 -72.38951 33965 ft 435 kts 229°
2026-05-04 19:53 40.57929 -72.44566 33991 ft 434 kts 229°
2026-05-04 19:53 40.53652 -72.50168 33989 ft 434 kts 229°
2026-05-04 19:54 40.49378 -72.55769 33986 ft 434 kts 229°
2026-05-04 19:54 40.45125 -72.61328 33981 ft 435 kts 230°
2026-05-04 19:55 40.40821 -72.66942 33987 ft 437 kts 229°
2026-05-04 19:55 40.36507 -72.72566 33985 ft 437 kts 230°
2026-05-04 19:56 40.32186 -72.78184 33982 ft 438 kts 229°
2026-05-04 19:56 40.27860 -72.83799 33981 ft 438 kts 229°
2026-05-04 19:57 40.23581 -72.89345 33980 ft 435 kts 229°
2026-05-04 19:57 40.19269 -72.94910 33976 ft 436 kts 229°
2026-05-04 19:58 40.14935 -73.00503 33984 ft 439 kts 229°
2026-05-04 19:58 40.10577 -73.06116 33972 ft 440 kts 229°
2026-05-04 19:59 40.06234 -73.11711 33979 ft 438 kts 229°
2026-05-04 19:59 40.01880 -73.17294 33976 ft 438 kts 229°
2026-05-04 20:00 39.98270 -73.21927 33981 ft 438 kts 229°
2026-05-04 20:00 39.93203 -73.28394 33974 ft 439 kts 229°
2026-05-04 20:01 39.88857 -73.33969 33982 ft 439 kts 229°
2026-05-04 20:01 39.84522 -73.39489 33977 ft 439 kts 229°
2026-05-04 20:02 39.80154 -73.45037 33987 ft 439 kts 229°
2026-05-04 20:02 39.75783 -73.50583 33986 ft 439 kts 229°
2026-05-04 20:03 39.71415 -73.56117 33984 ft 436 kts 229°
2026-05-04 20:03 39.67065 -73.61617 33982 ft 437 kts 229°
2026-05-04 20:04 39.62702 -73.67118 33979 ft 439 kts 229°
2026-05-04 20:04 39.59055 -73.71701 33972 ft 440 kts 229°
2026-05-04 20:05 39.53958 -73.78131 33985 ft 440 kts 229°
2026-05-04 20:05 39.50300 -73.82706 33979 ft 440 kts 229°
2026-05-04 20:06 39.45916 -73.88229 33978 ft 440 kts 229°
2026-05-04 20:06 39.41514 -73.93738 33983 ft 440 kts 229°
2026-05-04 20:07 39.37102 -73.99226 33984 ft 440 kts 229°
2026-05-04 20:07 39.32709 -74.04727 33984 ft 440 kts 229°
2026-05-04 20:08 39.28292 -74.10206 33983 ft 440 kts 229°
2026-05-04 20:08 39.23912 -74.15657 33991 ft 440 kts 229°
2026-05-04 20:09 39.19500 -74.21134 33990 ft 440 kts 229°
2026-05-04 20:09 39.15080 -74.26580 33995 ft 438 kts 229°
2026-05-04 20:10 39.10686 -74.32002 33997 ft 438 kts 229°
2026-05-04 20:10 39.06326 -74.37401 34006 ft 439 kts 229°
2026-05-04 20:11 39.01895 -74.42826 34000 ft 440 kts 228°
2026-05-04 20:11 38.97476 -74.48262 34000 ft 438 kts 229°
2026-05-04 20:12 38.93563 -74.54126 33668 ft 430 kts 247°
2026-05-04 20:12 38.92613 -74.57684 33476 ft 419 kts 260°
2026-05-04 20:12 38.91964 -74.61362 32813 ft 423 kts 262°
2026-05-04 20:12 38.91388 -74.65005 32315 ft 421 kts 262°
2026-05-04 20:13 38.90808 -74.68686 31704 ft 422 kts 262°
2026-05-04 20:13 38.90216 -74.72383 31113 ft 423 kts 262°
2026-05-04 20:13 38.89608 -74.76080 30540 ft 423 kts 262°
2026-05-04 20:13 38.88948 -74.79767 29970 ft 425 kts 260°
2026-05-04 20:14 38.88234 -74.83454 29424 ft 425 kts 260°
2026-05-04 20:14 38.87520 -74.87151 28823 ft 428 kts 260°
2026-05-04 20:14 38.86811 -74.90846 28262 ft 426 kts 260°
2026-05-04 20:14 38.86111 -74.94513 27720 ft 421 kts 260°
2026-05-04 20:15 38.85428 -74.98095 27151 ft 417 kts 260°
2026-05-04 20:15 38.84743 -75.01688 26612 ft 413 kts 260°
2026-05-04 20:15 38.84064 -75.05248 26067 ft 409 kts 260°
2026-05-04 20:15 38.83389 -75.08785 25529 ft 407 kts 259°
2026-05-04 20:16 38.82717 -75.12302 24962 ft 405 kts 259°
2026-05-04 20:16 38.82048 -75.15789 24437 ft 401 kts 259°
2026-05-04 20:16 38.81384 -75.19253 23908 ft 398 kts 259°
2026-05-04 20:16 38.80958 -75.22720 23370 ft 391 kts 268°
2026-05-04 20:17 38.80731 -75.26181 22868 ft 388 kts 268°
2026-05-04 20:17 38.80506 -75.29626 22339 ft 387 kts 268°
2026-05-04 20:17 38.80289 -75.33047 21835 ft 384 kts 268°
2026-05-04 20:17 38.80071 -75.36454 21326 ft 382 kts 268°
2026-05-04 20:18 38.79859 -75.39790 20831 ft 379 kts 268°
2026-05-04 20:18 38.79646 -75.43146 20329 ft 377 kts 268°
2026-05-04 20:18 38.79432 -75.46477 19833 ft 374 kts 267°
2026-05-04 20:18 38.79221 -75.49784 19338 ft 371 kts 267°
2026-05-04 20:19 38.79009 -75.53069 18810 ft 369 kts 267°
2026-05-04 20:19 38.78798 -75.56334 18341 ft 365 kts 267°
2026-05-04 20:19 38.78592 -75.59568 17830 ft 363 kts 267°
2026-05-04 20:19 38.78384 -75.62775 17365 ft 360 kts 266°
2026-05-04 20:20 38.78176 -75.65960 16896 ft 357 kts 266°
2026-05-04 20:20 38.77970 -75.69116 16437 ft 354 kts 266°
2026-05-04 20:20 38.77765 -75.72250 15970 ft 351 kts 266°
2026-05-04 20:20 38.77560 -75.75361 15510 ft 349 kts 266°
2026-05-04 20:21 38.77359 -75.78398 15053 ft 345 kts 266°
2026-05-04 20:21 38.77157 -75.81460 14607 ft 344 kts 266°
2026-05-04 20:21 38.76751 -75.87531 13690 ft 339 kts 266°
2026-05-04 20:22 38.76550 -75.90534 13256 ft 337 kts 266°
2026-05-04 20:22 38.76347 -75.93527 12796 ft 337 kts 266°
2026-05-04 20:22 38.76146 -75.96506 12342 ft 336 kts 266°
2026-05-04 20:22 38.75944 -75.99480 11898 ft 335 kts 266°
2026-05-04 20:23 38.75741 -76.02452 11460 ft 334 kts 266°
2026-05-04 20:23 38.75541 -76.05402 11163 ft 330 kts 266°
2026-05-04 20:23 38.75573 -76.08330 10973 ft 331 kts 275°
2026-05-04 20:23 38.75851 -76.11213 10969 ft 331 kts 278°
2026-05-04 20:24 38.76162 -76.14136 10978 ft 331 kts 278°
2026-05-04 20:24 38.76447 -76.16985 10946 ft 310 kts 277°
2026-05-04 20:24 38.76701 -76.19619 10910 ft 287 kts 277°
2026-05-04 20:24 38.76857 -76.21266 10880 ft 275 kts 277°
2026-05-04 20:25 38.77076 -76.23615 10860 ft 257 kts 277°
2026-05-04 20:25 38.77352 -76.26596 10670 ft 259 kts 277°
2026-05-04 20:25 38.77494 -76.28134 10401 ft 260 kts 277°
2026-05-04 20:25 38.77770 -76.31110 10408 ft 250 kts 277°
2026-05-04 20:26 38.77905 -76.32580 10388 ft 251 kts 277°
2026-05-04 20:26 38.78178 -76.35562 10370 ft 253 kts 277°
2026-05-04 20:26 38.78315 -76.37048 10332 ft 255 kts 277°
2026-05-04 20:26 38.78588 -76.40035 10252 ft 254 kts 277°
2026-05-04 20:27 38.78792 -76.42280 10206 ft 254 kts 277°
2026-05-04 20:27 38.78996 -76.44525 10160 ft 254 kts 277°
2026-05-04 20:27 38.79200 -76.46774 10112 ft 254 kts 277°
2026-05-04 20:27 38.79337 -76.48289 10076 ft 254 kts 277°
2026-05-04 20:28 38.79611 -76.51268 9996 ft 255 kts 276°
2026-05-04 20:28 38.79749 -76.52767 10013 ft 257 kts 276°
2026-05-04 20:28 38.79882 -76.54309 9998 ft 258 kts 275°
2026-05-04 20:28 38.80009 -76.58123 9952 ft 256 kts 271°
2026-05-04 20:29 38.80056 -76.60397 9966 ft 256 kts 271°
2026-05-04 20:29 38.80118 -76.62680 9971 ft 257 kts 272°
2026-05-04 20:29 38.80191 -76.64971 9947 ft 257 kts 272°
2026-05-04 20:29 38.80263 -76.67254 9946 ft 256 kts 272°
2026-05-04 20:30 38.80336 -76.69537 9940 ft 256 kts 272°
2026-05-04 20:30 38.80410 -76.71817 9947 ft 257 kts 272°
2026-05-04 20:30 38.80484 -76.74074 9945 ft 257 kts 272°
2026-05-04 20:30 38.80566 -76.76369 9844 ft 258 kts 275°
2026-05-04 20:31 38.81074 -76.78553 9782 ft 258 kts 296°
2026-05-04 20:31 38.82108 -76.80443 9690 ft 261 kts 305°
2026-05-04 20:31 38.83222 -76.82279 9502 ft 262 kts 305°
2026-05-04 20:31 38.84351 -76.84115 9319 ft 261 kts 305°
2026-05-04 20:32 38.85473 -76.85925 9202 ft 260 kts 306°
2026-05-04 20:32 38.86601 -76.87744 9018 ft 259 kts 304°
2026-05-04 20:32 38.87707 -76.89533 8748 ft 260 kts 304°
2026-05-04 20:32 38.88886 -76.91288 8496 ft 260 kts 310°
2026-05-04 20:33 38.90187 -76.92907 8223 ft 261 kts 312°
2026-05-04 20:33 38.91504 -76.94511 7853 ft 268 kts 312°
2026-05-04 20:33 38.92849 -76.96175 7477 ft 269 kts 311°
2026-05-04 20:33 38.94156 -76.97823 7128 ft 268 kts 311°
2026-05-04 20:34 38.95478 -76.99508 6766 ft 268 kts 311°
2026-05-04 20:34 38.96787 -77.01186 6419 ft 266 kts 311°
2026-05-04 20:34 38.98093 -77.02863 6055 ft 265 kts 311°
2026-05-04 20:34 38.99392 -77.04531 5722 ft 264 kts 311°
2026-05-04 20:35 39.00698 -77.06200 5372 ft 267 kts 311°
2026-05-04 20:35 39.02019 -77.07890 5006 ft 270 kts 311°
2026-05-04 20:35 39.03355 -77.09591 4660 ft 269 kts 311°
2026-05-04 20:35 39.04328 -77.11545 4491 ft 250 kts 281°
2026-05-04 20:36 39.04247 -77.13619 4494 ft 226 kts 244°
2026-05-04 20:36 39.03235 -77.14995 4490 ft 210 kts 205°
2026-05-04 20:36 39.01855 -77.15157 4569 ft 198 kts 175°
2026-05-04 20:36 39.00521 -77.14913 4514 ft 191 kts 179°
2026-05-04 20:37 38.99144 -77.14863 3854 ft 208 kts 185°
2026-05-04 20:37 38.97673 -77.15030 3141 ft 215 kts 190°
2026-05-04 20:37 38.96184 -77.15022 2557 ft 217 kts 167°
2026-05-04 20:37 38.94899 -77.14093 2315 ft 210 kts 141°
2026-05-04 20:38 38.93912 -77.12770 2031 ft 200 kts 136°
2026-05-04 20:38 38.92971 -77.11536 1795 ft 185 kts 141°
2026-05-04 20:38 38.92019 -77.10585 1682 ft 167 kts 153°
2026-05-04 20:38 38.91030 -77.09805 1447 ft 169 kts 146°
2026-05-04 20:39 38.90365 -77.08574 1205 ft 170 kts 117°
2026-05-04 20:39 38.89978 -77.07229 839 ft 150 kts 122°
2026-05-04 20:39 38.89468 -77.06221 705 ft 123 kts 144°
2026-05-04 20:39 38.88831 -77.05472 626 ft 128 kts 148°
2026-05-04 20:40 38.88104 -77.04796 522 ft 123 kts 149°
2026-05-04 20:40 38.87372 -77.04239 328 ft 122 kts 159°
2026-05-04 20:40 38.86591 -77.03923 161 ft 116 kts 175°
2026-05-04 20:40 38.85784 -77.03834 36 ft 115 kts 180°
2026-05-04 20:41 38.85121 -77.03775 22 ft 65 kts 173°
2026-05-04 20:41 38.84899 -77.03812 22 ft 13 kts 236°
2026-05-04 20:41 38.84911 -77.03885 21 ft 10 kts 336°
2026-05-04 20:41 38.84990 -77.03901 21 ft 13 kts 354°
2026-05-04 20:42 38.85088 -77.03909 22 ft 15 kts 352°
2026-05-04 20:42 38.85201 -77.03920 22 ft 17 kts 353°
2026-05-04 20:42 38.85328 -77.03935 22 ft 13 kts 354°
2026-05-04 20:42 38.85373 -77.03976 22 ft 7 kts 264°
2026-05-04 20:43 38.85371 -77.04034 22 ft 6 kts 298°
2026-05-04 20:43 38.85390 -77.04073 22 ft 0 kts 302°